WetterOnline ( https://www.wetteronline.de )

Wetter aktuell Erlenbach

Aktuelles Wetter: Öhringen (277m)

6-stündlich | Neueste Meldungen
Ortszeit Temperatur Wetter
Di, 04.10. 14:00 16.9° C leicht bewölkt
Di, 04.10. 8:00 6.0° C bedeckt
Di, 04.10. 2:00 6.5° C leicht bewölkt
Mo, 03.10. 20:00 11.2° C bewölkt
Mo, 03.10. 14:00 14.4° C bewölkt
Mo, 03.10. 8:00 9.9° C bewölkt
Mo, 03.10. 2:00 11.2° C bewölkt
So, 02.10. 20:00 12.2° C Sprühregen
Ortszeit Temperatur Wetter
Di, 04.10. 16:00 18.2° C wolkig
Di, 04.10. 15:50 18.2° C wolkig
Di, 04.10. 15:40 17.9° C bewölkt
Di, 04.10. 15:30 17.6° C wolkig
Di, 04.10. 15:20 17.6° C wolkig
Di, 04.10. 15:10 18.1° C bewölkt
Di, 04.10. 15:00 17.1° C wolkig
Di, 04.10. 14:30 17.6° C wolkig
Di, 04.10. 14:00 16.9° C leicht bewölkt
Di, 04.10. 13:30 16.1° C bewölkt
Di, 04.10. 13:00 16.1° C leicht bewölkt
Ortszeit Relative Feuchte Sichtweite
Di, 04.10. 14:00 57% 35 km
Di, 04.10. 8:00 95% 29 km
Di, 04.10. 2:00 95% 21 km
Mo, 03.10. 20:00 83% 35 km
Mo, 03.10. 14:00 65% 40 km
Mo, 03.10. 8:00 96% 5.0 km
Mo, 03.10. 2:00 97% 5.0 km
So, 02.10. 20:00 97% 17 km
Ortszeit Relative Feuchte Sichtweite
Di, 04.10. 16:00 57% >70 km
Di, 04.10. 15:50 57% -
Di, 04.10. 15:40 54% -
Di, 04.10. 15:30 55% 65 km
Di, 04.10. 15:20 55% -
Di, 04.10. 15:10 57% -
Di, 04.10. 15:00 57% 55 km
Di, 04.10. 14:30 56% 35 km
Di, 04.10. 14:00 57% 35 km
Di, 04.10. 13:30 58% 45 km
Di, 04.10. 13:00 59% >70 km
Ortszeit Niederschlagsmenge Niederschlagsart
Di, 04.10. 14:00 0.0 l/m2 in 6 Std. -
Di, 04.10. 8:00 0.0 l/m2 in 12 Std. -
Di, 04.10. 2:00 0.0 l/m2 in 6 Std. -
Mo, 03.10. 20:00 0.0 l/m2 in 12 Std. -
Mo, 03.10. 14:00 0.0 l/m2 in 6 Std. -
Mo, 03.10. 8:00 0.1 l/m2 in 12 Std. -
Mo, 03.10. 2:00 0.1 l/m2 in 6 Std. Regen
So, 02.10. 20:00 27 l/m2 in 12 Std. Regen
Ortszeit Niederschlagsmenge Niederschlagsart
Di, 04.10. 16:00 0.0 l/m2 in 1 Std. -
Di, 04.10. 15:50 keine Meldung -
Di, 04.10. 15:40 keine Meldung -
Di, 04.10. 15:30 0.0 l/m2 in 1 Std. -
Di, 04.10. 15:20 keine Meldung -
Di, 04.10. 15:10 keine Meldung -
Di, 04.10. 15:00 0.0 l/m2 in 1 Std. -
Di, 04.10. 14:30 0.0 l/m2 in 1 Std. -
Di, 04.10. 14:00 0.0 l/m2 in 1 Std. -
Di, 04.10. 13:30 0.0 l/m2 in 1 Std. -
Di, 04.10. 13:00 0.0 l/m2 in 1 Std. -
Ortszeit Stärke Spitze Richtung
km/h Bft. km/h Grad Sektor
Di, 04.10. 14:00 4 1 14 180° S
Di, 04.10. 8:00 6 1 13 30° NO
Di, 04.10. 2:00 4 1 11 80° O
Mo, 03.10. 20:00 7 2 14 140° SO
Mo, 03.10. 14:00 4 1 18 240° SW
Mo, 03.10. 8:00 7 2 14 320° NW
Mo, 03.10. 2:00 9 2 19 250° W
So, 02.10. 20:00 11 2 18 240° SW
Ortszeit Stärke Spitze Richtung
km/h Bft. km/h Grad Sektor
Di, 04.10. 16:00 4 1 14 60° NO
Di, 04.10. 15:50 4 1 - 60° NO
Di, 04.10. 15:40 6 1 - 360° N
Di, 04.10. 15:30 7 2 14 350° N
Di, 04.10. 15:20 7 2 - 350° N
Di, 04.10. 15:10 7 2 - 20° N
Di, 04.10. 15:00 6 1 9 320° NW
Di, 04.10. 14:30 4 1 7 210° SW
Di, 04.10. 14:00 4 1 11 180° S
Di, 04.10. 13:30 4 1 11 150° SO
Di, 04.10. 13:00 4 1 14 60° NO
Ortszeit Untergrenze Bedeckung Gattung
total tief tief mittel hoch
Di, 04.10. 14:00 5400 m 8/8 1/8 - - -
Di, 04.10. 8:00 5100 m 8/8 8/8 - - -
Di, 04.10. 2:00 10500 m 4/8 0/8 - - -
Mo, 03.10. 20:00 1200 m 8/8 4/8 - - -
Mo, 03.10. 14:00 750 m 7/8 7/8 - - -
Mo, 03.10. 8:00 <30 m 7/8 0/8 - - -
Mo, 03.10. 2:00 120 m 7/8 7/8 - - -
So, 02.10. 20:00 60 m 7/8 7/8 - - -
Ortszeit Bedeckungsgrad in Achtel und Wolkenuntergrenze
Di, 04.10. 16:00 5(6300m)
Di, 04.10. 15:50 5(6300m)
Di, 04.10. 15:40 7
Di, 04.10. 15:30 1(5100m) 5(6000m) 7(7200m)
Di, 04.10. 15:20 1(5100m) 5(6000m) 7(7200m)
Di, 04.10. 15:10 7
Di, 04.10. 15:00 6(5100m) 8(10500m)
Di, 04.10. 14:30 2(5400m) 8(8100m) 8(10500m)
Di, 04.10. 14:00 1(5400m) 8(9000m) 8(9000m)
Di, 04.10. 13:30 6(5100m) 8(9000m) 8(10500m)
Di, 04.10. 13:00 7(9000m) 8(9000m) 8(10500m)
Ortszeit Luftdruck NN (hPa) Tendenz (hPa in 3 Std.)
Di, 04.10. 14:00 1023 - 0,9
Di, 04.10. 8:00 1025 - 0,2
Di, 04.10. 2:00 1026 - 1,1
Mo, 03.10. 20:00 1027 - 0,4
Mo, 03.10. 14:00 1028 - 0,4
Mo, 03.10. 8:00 1027 + 0,8
Mo, 03.10. 2:00 1025 + 1,4
So, 02.10. 20:00 1021 + 1,6
Ortszeit Luftdruck NN (hPa) Tendenz (hPa in 3 Std.)
Di, 04.10. 16:00 1022 - 1,0
Di, 04.10. 15:50 1022 keine Meldung
Di, 04.10. 15:40 1023 keine Meldung
Di, 04.10. 15:30 1022 - 1,0
Di, 04.10. 15:20 1022 keine Meldung
Di, 04.10. 15:10 1022 keine Meldung
Di, 04.10. 15:00 1023 - 1,1
Di, 04.10. 14:30 1023 - 0,8
Di, 04.10. 14:00 1023 - 0,9
Di, 04.10. 13:30 1023 - 0,6
Di, 04.10. 13:00 1024 - 0,2
Ortszeit Schneehöhe (cm)
Di, 04.10. 14:00 0
Di, 04.10. 8:00 0
Di, 04.10. 2:00 0
Mo, 03.10. 20:00 0
Mo, 03.10. 14:00 0
Mo, 03.10. 8:00 0
Mo, 03.10. 2:00 0
So, 02.10. 20:00 0
Ortszeit Schneehöhe (cm)
Di, 04.10. 16:00 0
Di, 04.10. 15:50 0
Di, 04.10. 15:40 0
Di, 04.10. 15:30 0
Di, 04.10. 15:20 0
Di, 04.10. 15:10 0
Di, 04.10. 15:00 0
Di, 04.10. 14:30 0
Di, 04.10. 14:00 0
Di, 04.10. 13:30 0
Di, 04.10. 13:00 0
Link zu dieser Seite / Seite empfehlen

Das Wetter in ...